Weather in Kabugao

Philippines     18°02′23″N   121°10′02″E
temp.,
°C
wind,
m/s
gust,
m/s
humid.,
%
clouds,
%
prec.,
mm/h
press.,
hPa
HPBL,
m
14 may, fri
fri1423:00+21wsw11845 0.0 101212
02:00+20ssw11885 0.0 101125
05:00+19sw11885 0.0 101126
08:00+27se135411 0.0 1012530
11:00+34se24325 0.0 10101427
14:00+35se34315 0.0 10072107
17:00+33ese23405 0.0 10071607
20:00+24nne01845 0.0 101013
15 may, sat
sat1523:00+22sw119015 0.0 101213
02:00+21sw119258 0.0 101123
05:00+20sw11945 0.0 101126
08:00+28se14580 0.0 1012652
11:00+34se35385 0.0 10101741
14:00+36se34315 0.0 10072193
17:00+33e334114 0.0 10071478
20:00+24ne11856 0.0 101011
16 may, sun
sun1623:00+23wsw1190100 0.0 101114
02:00+21ssw119311 0.0 101023
05:00+21sw11935 0.0 101026
08:00+28sse13582 0.0 1011639
11:00+34se22360 0.0 10101688
14:00+36ese32282 0.0 10072402
17:00+33ene34425 0.0 10071218
20:00+24se01835 0.0 101011
17 may, mon
mon1723:00+23wnw019011 0.0 101111
02:00+22ssw119488 0.0 101030
05:00+21sw119762 0.0 101032
08:00+28sse135929 0.0 1011624
11:00+35se223514 0.0 10091708
14:00+36ese322653 0.0 10072413
17:00+32ne3542100 0.0 1007968
20:00+24e0180100 0.0 101012
18 may, tue
tue1823:00+23w1186100 0.0 101112
02:00+22ssw119036 0.0 101025
05:00+21sw119096 0.0 101025
08:00+28se14547 0.0 1011718
11:00+34se343743 0.0 10101814
14:00+36ese332989 0.0 10072474
17:00+33e334061 0.0 10071604
20:00+24ne118276 0.0 101025